Content
SEND FEEDBACK

Daily
Averages
Monthly
Summary
Germany

LUBECK, GERMANY


Home > Europe > Germany
Elevation: 56 feet     Latitude: 54 00N     Longitude: 011 12E

WEATHER
 
SELECT A DAY
Number of Records: 60,294;   Date Range: 7/3/96 - 9/15/14
 
SHARE

PRINT THIS DATA

[ ← Previous Day ]
WEATHER ALMANAC - AUGUST 28, 2013
[ Next Day → ]
[ °C ]   °F
Weather ElementAverageHighLow
Temperature65.8 °F75.2 °F (5:50 pm)48.2 °F (6:50 am)
Dewpoint53.1 °F59 °F (8:54 am)48.2 °F (6:50 am)
Humidity66.9 %100 % (6:50 am)41 % (5:50 pm)
Barometer30.10 in30.12 in (9:50 am)30.06 in (6:50 am)
Wind Speed5.4 mph10.4 mph (10:50 am)
Weather ElementAverage
Visibility5 mi
Wind DirectionESE (104.4 °)

Weather ElementTotal
Precipitation---
Heating Degree Days3.3 (Base 65)
Growing Degree Days11.7 (Base 50)
Averaged from 34 records on August 28, 2013
WEATHER CONDITIONS BREAKOUT
WIND DIRECTION BREAKOUT
WEATHER BY HOUR - AUGUST 28, 2013
[ °C ]   °F
Local TimeTemperatureDewpointHumidityBarometerVisibilityWind DirectionWind SpeedGust SpeedPrecipitationEventsConditions
6:50 AM48.2 °F48.2 °F100 %30.06 in5.6 miCalmFogFog
7:20 AM50.0 °F50.0 °F100 %30.09 in5.0 miWSW (250°)2.3 mphPartly Cloudy
7:50 AM51.8 °F51.8 °F100 %30.09 in4.3 miVariable1.2 mphMostly Cloudy
8:20 AM53.6 °F53.6 °F100 %30.09 in2.5 miVariable1.2 mphMostly Cloudy
8:50 AM57.2 °F57.2 °F100 %30.09 in2.5 miVariable2.3 mphMostly Cloudy
8:54 AM59.0 °F59.0 °F100 %30.09 in3.1 miVariable1.2 mphScattered Clouds
9:06 AM60.8 °F59.0 °F94 %30.09 in3.1 miVariable2.3 mphMostly Cloudy
9:20 AM62.6 °F59.0 °F88 %30.09 in3.7 miNorth (350°)4.6 mphMostly Cloudy
9:22 AM62.6 °F59.0 °F88 %30.09 in3.7 miNorth (360°)4.6 mphScattered Clouds
9:50 AM62.6 °F59.0 °F88 %30.12 in6.2 miNorth (360°)8.1 mphScattered Clouds
10:20 AM66.2 °F57.2 °F73 %30.12 in6.2 miNE (40°)9.2 mphPartly Cloudy
10:50 AM68.0 °F57.2 °F68 %30.12 in6.2 miNNE (20°)10.4 mphPartly Cloudy
11:20 AM69.8 °F57.2 °F64 %30.12 in6.2 miNNE (30°)9.2 mphPartly Cloudy
11:50 AM69.8 °F55.4 °F60 %30.12 in6.2 miNE (40°)9.2 mphPartly Cloudy
12:20 PM69.8 °F51.8 °F53 %30.12 in6.2 miENE (60°)10.4 mphPartly Cloudy
12:50 PM71.6 °F51.8 °F50 %30.12 in6.2 miENE (60°)10.4 mphPartly Cloudy
1:20 PM71.6 °F51.8 °F50 %30.12 in6.2 miNE (50°)9.2 mphPartly Cloudy
1:50 PM71.6 °F50.0 °F46 %30.12 in6.2 miNE (40°)6.9 mphScattered Clouds
2:20 PM71.6 °F50.0 °F46 %30.12 inEast (80°)6.9 mphClear
2:50 PM73.4 °F50.0 °F44 %30.09 inNorth (360°)6.9 mphClear
3:20 PM73.4 °F50.0 °F44 %30.09 inNE (40°)5.8 mphClear
3:50 PM71.6 °F50.0 °F46 %30.09 inNNE (30°)8.1 mphClear
4:20 PM73.4 °F51.8 °F47 %30.09 inNNW (340°)6.9 mphClear
4:50 PM73.4 °F51.8 °F47 %30.09 inNNW (340°)4.6 mphClear
5:20 PM73.4 °F50.0 °F44 %30.09 inNW (320°)5.8 mphClear
5:50 PM75.2 °F50.0 °F41 %30.09 inNNE (20°)4.6 mphClear
6:20 PM73.4 °F50.0 °F44 %30.09 inNNE (20°)8.1 mphClear
6:50 PM71.6 °F51.8 °F50 %30.09 inENE (60°)8.1 mphClear
7:20 PM69.8 °F51.8 °F53 %30.09 inENE (60°)5.8 mphClear
7:50 PM66.2 °F51.8 °F60 %30.12 inNE (40°)4.6 mphClear
8:20 PM66.2 °F51.8 °F60 %30.12 inNE (50°)2.3 mphClear
8:50 PM62.6 °F51.8 °F68 %30.12 inSE (130°)1.2 mphClear
9:20 PM59.0 °F51.8 °F77 %30.12 inVariable1.2 mphClear
9:50 PM57.2 °F51.8 °F82 %30.12 inVariable1.2 mphClear
Hourly data recorded from EDHL, located miles away from Lubeck, Germany







STORIES FROM OUR PARTNERS